Location: Klein M�hlingen
(51.9472°N, 11.7453°E)
Time: 02:56:39
(UTC+00:00)

Nauka - Pass Details

Date: 02 October 2021
Orbit: 417 x 423 km, 51.6° (Epoch: 22 October)

Event Time Altitude Azimuth Distance (km) Brightness Sun altitude
Rises 19:05:26 0° 279° (W) 2,367 ? -21.6°
Reaches altitude 10° 19:08:13 10° 255° (WSW) 1,500 ? -22.0°
Maximum altitude 19:10:09 15° 220° (SW) 1,251 ? -22.3°
Enters shadow 19:10:23 14° 215° (SW) 1,254 ? -22.3°
